Tracking 27402 objects as of 3-Jun-2023
HD Live streaming from Space Station
objects crossing your sky now

STARLINK-1274

Track STARLINK-1274 now!
10-day predictions
STARLINK-1274 is classified as:


NORAD ID: 45387
Int'l Code: 2020-019AD
Perigee: 553.5 km
Apogee: 555.3 km
Inclination: 53.1 °
Period: 95.6 minutes
Semi major axis: 6925 km
RCS: Unknown
Launch date: March 18, 2020
Source: United States (US)
Launch site: AIR FORCE EASTERN TEST RANGE (AFETR)
Your satellite tracking list
Your tracking list is empty




NASA's NSSDC Master Catalog

Two Line Element Set (TLE):
1 45387U 20019AD  23153.76976193 -.00001072  00000-0 -53091-4 0  9995
2 45387  53.0547   4.8119 0001305  72.2927 287.8204 15.06395100177639
Source of the keplerian elements: AFSPC